{"data":{"norad_id":49433,"intl_designator":"2021-104AB","name":"STARLINK-3079","alt_names":[],"object_type":"PAYLOAD","status":"ACTIVE","operator":null,"country":"US","launch_date":"2021-11-13","launch_site_code":"AFETR","launch_vehicle":null,"mission":null,"orbit_class":"UNKNOWN","rcs_meters":null,"size_class":null,"mass_kg":null,"dimensions":null,"purposes":["comms"],"wikipedia_slug":null,"has_3d_model":false,"image_url":null,"decayed_at":null,"tle_current":{"epoch":"2026-05-25T04:57:06.892992Z","epoch_age_seconds":50550,"freshness":"FRESH","line1":"1 49433U 21104AB  26145.20632978  .00000379  00000+0  41902-4 0  9994","line2":"2 49433  53.2141 225.6251 0001133  85.7447 274.3674 15.08836320251554","mean_motion":15.0883632,"eccentricity":0.0001133,"inclination_deg":53.2141,"raan_deg":225.6251,"arg_perigee_deg":85.7447,"mean_anomaly_deg":274.3674,"bstar":4.1902e-5,"rev_number":25155,"period_min":95.437787446686,"perigee_km":538.97084015225,"apogee_km":540.53843439726,"semimajor_km":6917.8916372748,"source":"CELESTRAK","updated_at":"2026-05-25T13:38:16.799902Z"}}}